{"data":{"norad_id":64858,"intl_designator":"2025-152S","name":"STARLINK-34654","alt_names":[],"object_type":"PAYLOAD","status":"ACTIVE","operator":null,"country":"US","launch_date":"2025-07-19","launch_site_code":"AFWTR","launch_vehicle":null,"mission":null,"orbit_class":"UNKNOWN","rcs_meters":null,"size_class":null,"mass_kg":null,"dimensions":null,"purposes":["comms"],"wikipedia_slug":null,"has_3d_model":false,"image_url":null,"decayed_at":null,"tle_current":{"epoch":"2026-09-20T13:52:49.618848Z","epoch_age_seconds":117515,"freshness":"FRESH","line1":"1 64858U 25152S   26263.57835207  .00012446  00000+0  38727-3 0  9998","line2":"2 64858  97.2843 114.0967 0001938  92.7397 267.4068 15.33440101 64838","mean_motion":15.33440101,"eccentricity":0.0001938,"inclination_deg":97.2843,"raan_deg":114.0967,"arg_perigee_deg":92.7397,"mean_anomaly_deg":267.4068,"bstar":0.00038727,"rev_number":6483,"period_min":93.906504666269,"perigee_km":464.23144245155,"apogee_km":466.88405853684,"semimajor_km":6843.6947504942,"source":"CELESTRAK","updated_at":"2026-09-21T09:00:35.451654Z"}}}